Brisbane, Australia

12:05 AM AEST on March 28, 2017 (GMT +1000)
Brisbane International

Weather History for YBBN - December, 2013

Change the Weather History Date:

Saturday, December 28, 2013

  Actual Average Record
Temperature  
Mean Temperature 76 °F -  
Max Temperature 82 °F 85 °F 86 °F (2004)
Min Temperature 70 °F 70 °F 59 °F (1998)
Cooling Degree Days 11    
Growing Degree Days 26 (Base 50)    
Moisture  
Dew Point 68 °F    
Average Humidity 72    
Maximum Humidity 83    
Minimum Humidity 54    
Precipitation  
Precipitation 0.00 in 0.22 in - ()
Sea Level Pressure  
Sea Level Pressure 29.83 in    
Wind  
Wind Speed 8 mph ()    
Max Wind Speed 15 mph    
Max Gust Speed -    
Visibility 7.6 miles    
Events      
Averages and records for this station are not official NWS values.
T = Trace of Precipitation, MM = Missing Value Source: Averaged Metar Reports

Daily Weather History Graph

Daily Weather History Graph

Search for Another Location

Airport or City:

Trip Planner

Search our weather history database for the weather conditions in past years. The results will help you decide how hot, cold, wet, or windy it might be!

Date:

Astronomy

Dec. 28, 2013 Rise Set
Actual Time 4:53 AM AEST 6:44 PM AEST
Civil Twilight 4:26 AM AEST 7:11 PM AEST
Nautical Twilight 3:54 AM AEST 7:43 PM AEST
Astronomical Twilight 3:20 AM AEST 8:17 PM AEST
Moon 12:51 AM AEST (12/28) 2:13 PM AEST (12/28)
Length of Visible Light 14h 44m
Length of Day
13h 51m
Waning Crescent, 25% of the Moon is Illuminated
Dec 28
Waning Crescent
Jan 1
New
Jan 8
First Quarter
Jan 16
Full
Jan 24
Last Quarter

Hourly Weather History & Observations

Time (AEST) Temp. Heat Index Dew Point Humidity Pressure Visibility Wind Dir Wind Speed Gust Speed Precip Events Conditions
12:00 AM 74 °F - 66 °F 69% 29.87 in 12 mi SE 6.9 mph - -   Haze
12:00 AM 75.2 °F - 66.2 °F 73% 29.86 in 6.2 mi SE 6.9 mph - N/A   Scattered Clouds
12:30 AM 75.2 °F - 66.2 °F 73% 29.86 in 6.2 mi SSE 6.9 mph - N/A   Scattered Clouds
1:00 AM 74 °F - 67 °F 71% 29.85 in - SE 8.1 mph - -  
1:00 AM 73.4 °F - 66.2 °F 78% 29.83 in 6.2 mi SE 8.1 mph - N/A   Partly Cloudy
1:30 AM 73.4 °F - 66.2 °F 78% 29.83 in 6.2 mi SE 9.2 mph - N/A   Partly Cloudy
2:00 AM 73.4 °F - 66.2 °F 78% 29.83 in 6.2 mi SSE 5.8 mph - N/A   Scattered Clouds
2:30 AM 73.4 °F - 66.2 °F 78% 29.83 in 6.2 mi SSE 5.8 mph - N/A   Mostly Cloudy
3:00 AM 73 °F - 66 °F 73% 29.83 in 12 mi SSE 5.8 mph - -   Haze
3:00 AM 73.4 °F - 66.2 °F 78% 29.83 in 6.2 mi SSE 5.8 mph - N/A   Scattered Clouds
3:30 AM 71.6 °F - 66.2 °F 83% 29.83 in 6.2 mi SSE 5.8 mph - N/A   Mostly Cloudy
4:00 AM 72 °F - 66 °F 76% 29.84 in - SSE 5.8 mph - -  
4:00 AM 71.6 °F - 66.2 °F 83% 29.83 in 6.2 mi SSE 5.8 mph - N/A   Mostly Cloudy
4:30 AM 71.6 °F - 66.2 °F 83% 29.83 in 6.2 mi South 3.5 mph - N/A   Scattered Clouds
5:00 AM 71.6 °F - 66.2 °F 83% 29.83 in 6.2 mi Calm Calm - N/A   Mostly Cloudy
5:30 AM 71.6 °F - 66.2 °F 83% 29.86 in 6.2 mi South 4.6 mph - N/A   Mostly Cloudy
6:00 AM 72 °F - 67 °F 78% 29.87 in 22 mi South 5.8 mph - -   Partly Cloudy
6:00 AM 73.4 °F - 66.2 °F 78% 29.86 in 6.2 mi South 5.8 mph - N/A   Mostly Cloudy
6:30 AM 73.4 °F - 68.0 °F 83% 29.86 in 6.2 mi SSE 5.8 mph - N/A   Mostly Cloudy
7:00 AM 75 °F - 67 °F 69% 29.88 in - SE 6.9 mph - -  
7:00 AM 75.2 °F - 66.2 °F 73% 29.86 in 6.2 mi SE 6.9 mph - N/A   Mostly Cloudy
7:30 AM 77.0 °F - 66.2 °F 69% 29.89 in 6.2 mi SE 8.1 mph - N/A   Mostly Cloudy
8:00 AM 77.0 °F - 66.2 °F 69% 29.89 in 6.2 mi ESE 9.2 mph - N/A   Mostly Cloudy
8:30 AM 77.0 °F - 66.2 °F 69% 29.89 in 6.2 mi ESE 9.2 mph - N/A   Mostly Cloudy
9:00 AM 78 °F - 66 °F 59% 29.88 in 19 mi SE 8.1 mph - -   Partly Cloudy
9:00 AM 78.8 °F - 66.2 °F 65% 29.86 in 6.2 mi SE 8.1 mph - N/A   Mostly Cloudy
9:30 AM 78.8 °F - 66.2 °F 65% 29.86 in 6.2 mi ENE 8.1 mph - N/A   Mostly Cloudy
10:00 AM 80 °F - 66 °F 54% 29.87 in - ENE 8.1 mph - -  
10:00 AM 78.8 °F - 66.2 °F 65% 29.86 in 6.2 mi ENE 8.1 mph - N/A   Mostly Cloudy
10:30 AM 78.8 °F - 66.2 °F 65% 29.86 in 6.2 mi ENE 8.1 mph - N/A   Mostly Cloudy
11:00 AM 78.8 °F - 66.2 °F 65% 29.86 in 6.2 mi East 8.1 mph - N/A   Mostly Cloudy
11:30 AM 78.8 °F - 66.2 °F 65% 29.86 in 6.2 mi ENE 9.2 mph - N/A   Mostly Cloudy
12:00 PM 79 °F - 67 °F 57% 29.85 in 19 mi ENE 9.2 mph - -   Partly Cloudy
12:00 PM 78.8 °F - 66.2 °F 65% 29.83 in 6.2 mi ENE 9.2 mph - N/A   Mostly Cloudy
12:30 PM 78.8 °F - 68.0 °F 69% 29.83 in 6.2 mi ENE 9.2 mph - N/A   Mostly Cloudy
1:00 PM 80 °F - 68 °F 58% 29.83 in - NE 8.1 mph - -  
1:00 PM 80.6 °F 83.2 °F 68.0 °F 65% 29.83 in 6.2 mi NE 8.1 mph - N/A   Mostly Cloudy
1:30 PM 80.6 °F 83.2 °F 68.0 °F 65% 29.80 in 6.2 mi ENE 10.4 mph - N/A   Mostly Cloudy
2:00 PM 82.4 °F 86.3 °F 69.8 °F 66% 29.80 in 6.2 mi ENE 11.5 mph - N/A   Scattered Clouds
2:30 PM 82.4 °F 85.4 °F 68.0 °F 62% 29.80 in 6.2 mi ENE 12.7 mph - N/A   Partly Cloudy
3:00 PM 81 °F - 68 °F 56% 29.79 in 19 mi ENE 13.8 mph - -   Partly Cloudy
3:00 PM 80.6 °F 83.2 °F 68.0 °F 65% 29.77 in 6.2 mi ENE 13.8 mph - N/A   Partly Cloudy
3:30 PM 80.6 °F 83.2 °F 68.0 °F 65% 29.77 in 6.2 mi ENE 13.8 mph - N/A   Partly Cloudy
4:00 PM 80 °F - 68 °F 60% 29.78 in - ENE 13.8 mph - -  
4:00 PM 80.6 °F 83.2 °F 68.0 °F 65% 29.77 in 6.2 mi ENE 13.8 mph - N/A   Scattered Clouds
4:30 PM 78.8 °F - 68.0 °F 69% 29.77 in 6.2 mi ENE 15.0 mph - N/A   Partly Cloudy
5:00 PM 78.8 °F - 69.8 °F 74% 29.77 in 6.2 mi ENE 11.5 mph - N/A   Scattered Clouds
5:30 PM 78.8 °F - 69.8 °F 74% 29.77 in 6.2 mi NE 13.8 mph - N/A   Mostly Cloudy
6:00 PM 78 °F - 70 °F 69% 29.79 in 19 mi ENE 12.7 mph - -   Partly Cloudy
6:00 PM 78.8 °F - 69.8 °F 74% 29.77 in 6.2 mi NE 12.7 mph - N/A   Mostly Cloudy
6:30 PM 78.8 °F - 69.8 °F 74% 29.80 in 6.2 mi NE 11.5 mph - N/A   Mostly Cloudy
7:00 PM 78 °F - 71 °F 72% 29.80 in - NE 12.7 mph - -  
7:00 PM 78.8 °F - 69.8 °F 74% 29.80 in 6.2 mi NE 12.7 mph - N/A   Mostly Cloudy
7:30 PM 78.8 °F - 71.6 °F 78% 29.80 in 6.2 mi NE 10.4 mph - N/A   Mostly Cloudy
8:00 PM 78.8 °F - 71.6 °F 78% 29.80 in 6.2 mi NE 10.4 mph - N/A   Mostly Cloudy
8:30 PM 78.8 °F - 71.6 °F 78% 29.80 in 6.2 mi North 12.7 mph - N/A   Mostly Cloudy
9:00 PM 78 °F - 71 °F 72% 29.83 in 19 mi North 12.7 mph - -   Partly Cloudy
9:00 PM 78.8 °F - 69.8 °F 74% 29.83 in 6.2 mi North 12.7 mph - N/A   Mostly Cloudy
9:30 PM 77.0 °F - 71.6 °F 83% 29.83 in 6.2 mi North 10.4 mph - N/A   Mostly Cloudy
10:00 PM 77 °F - 70 °F 74% 29.83 in - North 10.4 mph - -  
10:00 PM 77.0 °F - 69.8 °F 78% 29.83 in 6.2 mi North 10.4 mph - N/A   Scattered Clouds
10:30 PM 77.0 °F - 71.6 °F 83% 29.83 in 6.2 mi NNE 9.2 mph - N/A   Mostly Cloudy
11:00 PM 78.8 °F - 71.6 °F 78% 29.80 in 6.2 mi NNE 11.5 mph - N/A   Scattered Clouds
11:30 PM 77.0 °F - 69.8 °F 78% 29.80 in 6.2 mi North 9.2 mph - N/A   Scattered Clouds